| time (UTC) | temp C | wind direction | speed KPH | gust KPH | rain 1hr cm | rain 24hr cm | rain mn cm | humidity % | barometer mb |
| 20260505041734 | 12 | 302 | 1.6 | 12.9 | 0.71 | 1.30 | 0.00 | 93 | 1006.7 |
| 20260505041234 | 12 | 1 | 8.0 | 9.7 | 0.69 | 1.22 | 0.00 | 93 | 1006.7 |
| 20260505040740 | 12 | 336 | 0.0 | 6.4 | 0.66 | 1.14 | 0.00 | 93 | 1006.4 |
| 20260505040234 | 12 | 5 | 1.6 | 8.0 | 0.56 | 1.02 | 0.00 | 93 | 1006.7 |
| 20260505035734 | 12 | 322 | 0.0 | 8.0 | 0.48 | 0.94 | 0.00 | 93 | 1006.8 |
| 20260505035237 | 12 | 53 | 1.6 | 6.4 | 0.48 | 0.94 | 0.00 | 93 | 1006.5 |
| 20260505034734 | 12 | 11 | 0.0 | 6.4 | 0.46 | 0.89 | 0.00 | 92 | 1006.5 |
| 20260505034237 | 13 | 130 | 1.6 | 6.4 | 0.41 | 0.81 | 0.00 | 92 | 1006.6 |
| 20260505033741 | 12 | 77 | 0.0 | 9.7 | 0.36 | 0.74 | 0.00 | 92 | 1006.6 |
| 20260505033240 | 13 | 0 | 0.0 | 8.0 | 0.38 | 0.74 | 0.00 | 92 | 1006.8 |
| 20260505032734 | 13 | 42 | 1.6 | 8.0 | 0.38 | 0.71 | 0.00 | 92 | 1006.9 |
| 20260505032237 | 13 | 7 | 1.6 | 9.7 | 0.36 | 0.64 | 0.00 | 92 | 1006.9 |
| 20260505031734 | 13 | 334 | 3.2 | 8.0 | 0.30 | 0.56 | 0.00 | 91 | 1007.1 |
| 20260505031237 | 13 | 60 | 0.0 | 4.8 | 0.28 | 0.51 | 0.00 | 91 | 1007.1 |
| 20260505030734 | 13 | 64 | 1.6 | 6.4 | 0.25 | 0.46 | 0.00 | 91 | 1007.2 |
| 20260505030234 | 13 | 19 | 0.0 | 3.2 | 0.23 | 0.46 | 0.00 | 91 | 1007.4 |
| 20260505025737 | 13 | 46 | 1.6 | 3.2 | 0.25 | 0.46 | 0.00 | 90 | 1007.5 |
| 20260505025237 | 13 | 47 | 0.0 | 3.2 | 0.25 | 0.43 | 0.00 | 90 | 1007.6 |
| 20260505024737 | 13 | 47 | 0.0 | 4.8 | 0.23 | 0.41 | 0.00 | 90 | 1007.7 |
| 20260505024235 | 13 | 71 | 0.0 | 6.4 | 0.23 | 0.38 | 0.00 | 90 | 1007.7 |
| 20260505023737 | 13 | 137 | 1.6 | 3.2 | 0.23 | 0.36 | 0.00 | 90 | 1007.8 |
| 20260505023237 | 13 | 203 | 0.0 | 3.2 | 0.18 | 0.33 | 0.00 | 89 | 1007.9 |
| 20260505022740 | 13 | 240 | 1.6 | 1.6 | 0.18 | 0.30 | 0.00 | 90 | 1008.0 |
| 20260505022237 | 13 | 240 | 0.0 | 3.2 | 0.15 | 0.28 | 0.00 | 89 | 1008.0 |
| 20260505021734 | 13 | 223 | 3.2 | 3.2 | 0.15 | 0.25 | 0.00 | 89 | 1008.0 |
| 20260505021234 | 13 | 70 | 0.0 | 1.6 | 0.15 | 0.23 | 0.00 | 89 | 1008.0 |
| 20260505020734 | 13 | 70 | 0.0 | 3.2 | 0.13 | 0.20 | 0.00 | 89 | 1008.1 |
| 20260505020232 | 13 | 53 | 0.0 | 3.2 | 0.18 | 0.20 | 0.00 | 88 | 1008.1 |
| 20260505015731 | 14 | 71 | 0.0 | 1.6 | 0.18 | 0.18 | 0.00 | 87 | 1008.1 |
| 20260505015231 | 14 | 68 | 0.0 | 4.8 | 0.15 | 0.18 | 0.00 | 87 | 1008.1 |
| 20260505014731 | 14 | 149 | 1.6 | 3.2 | 0.18 | 0.18 | 0.00 | 86 | 1008.4 |
| 20260505014240 | 14 | 149 | 0.0 | 3.2 | 0.15 | 0.15 | 0.00 | 85 | 1008.4 |
| 20260505013731 | 14 | 150 | 0.0 | 1.6 | 0.13 | 0.13 | 0.00 | 84 | 1008.5 |
| 20260505013234 | 14 | 150 | 0.0 | 1.6 | 0.13 | 0.13 | 0.00 | 85 | 1008.5 |
| 20260505012731 | 15 | 150 | 0.0 | 3.2 | 0.10 | 0.10 | 0.00 | 85 | 1008.6 |
| 20260505012231 | 15 | 154 | 0.0 | 3.2 | 0.10 | 0.10 | 0.00 | 84 | 1008.7 |
| 20260505011734 | 15 | 154 | 0.0 | 1.6 | 0.08 | 0.08 | 0.00 | 83 | 1008.6 |
| 20260505011231 | 15 | 154 | 0.0 | 4.8 | 0.08 | 0.08 | 0.00 | 82 | 1008.8 |
| 20260505010731 | 15 | 149 | 1.6 | 1.6 | 0.08 | 0.08 | 0.00 | 82 | 1008.9 |
| 20260505010238 | 15 | 149 | 0.0 | 6.4 | 0.03 | 0.03 | 0.00 | 80 | 1009.0 |
| 20260505005731 | 16 | 158 | 0.0 | 1.6 | 0.00 | 0.00 | 0.00 | 80 | 1009.1 |
| 20260505005234 | 16 | 158 | 1.6 | 8.0 | 0.00 | 0.00 | 0.00 | 78 | 1009.1 |
| 20260505004737 | 16 | 153 | 3.2 | 8.0 | 0.00 | 0.00 | 0.00 | 77 | 1009.2 |
| 20260505004237 | 16 | 147 | 1.6 | 9.7 | 0.00 | 0.00 | 0.00 | 76 | 1009.2 |
| 20260505003734 | 16 | 123 | 4.8 | 16.1 | 0.00 | 0.00 | 0.00 | 74 | 1009.2 |
| 20260505003240 | 16 | 144 | 1.6 | 6.4 | 0.00 | 0.00 | 0.00 | 75 | 1009.4 |
| 20260505002737 | 16 | 153 | 0.0 | 9.7 | 0.00 | 0.00 | 0.00 | 74 | 1009.4 |
| 20260505002231 | 16 | 171 | 4.8 | 4.8 | 0.00 | 0.00 | 0.00 | 74 | 1009.4 |
| 20260505001735 | 16 | 151 | 1.6 | 8.0 | 0.00 | 0.00 | 0.00 | 74 | 1009.5 |
| 20260505001231 | 16 | 129 | 1.6 | 6.4 | 0.00 | 0.00 | 0.00 | 73 | 1009.7 |
| 20260505000737 | 16 | 132 | 4.8 | 9.7 | 0.00 | 0.00 | 0.00 | 73 | 1009.8 |
| 20260505000235 | 16 | 95 | 3.2 | 3.2 | 0.00 | 0.00 | 0.00 | 73 | 1009.9 |
| 20260504235731 | 16 | 94 | 0.0 | 11.3 | 0.00 | 0.00 | 0.00 | 73 | 1009.9 |
| 20260504235234 | 16 | 130 | 1.6 | 11.3 | 0.00 | 0.00 | 0.00 | 74 | 1010.0 |
| 20260504234731 | 16 | 157 | 9.7 | 14.5 | 0.00 | 0.00 | 0.00 | 74 | 1010.0 |
| 20260504234235 | 16 | 161 | 1.6 | 6.4 | 0.00 | 0.00 | 0.00 | 75 | 1010.1 |
| 20260504233731 | 16 | 126 | 0.0 | 11.3 | 0.00 | 0.00 | 0.00 | 75 | 1010.2 |
| 20260504233231 | 16 | 136 | 1.6 | 11.3 | 0.00 | 0.00 | 0.00 | 75 | 1010.3 |
| 20260504232737 | 16 | 143 | 1.6 | 8.0 | 0.00 | 0.00 | 0.00 | 75 | 1010.4 |
| 20260504232231 | 16 | 167 | 8.0 | 12.9 | 0.00 | 0.00 | 0.00 | 75 | 1010.5 |
| 20260504231731 | 16 | 146 | 6.4 | 19.3 | 0.00 | 0.00 | 0.00 | 75 | 1010.5 |
| 20260504231231 | 16 | 164 | 8.0 | 19.3 | 0.00 | 0.00 | 0.00 | 75 | 1010.6 |
| 20260504230731 | 16 | 140 | 9.7 | 14.5 | 0.00 | 0.00 | 0.00 | 74 | 1010.6 |
| 20260504230231 | 16 | 170 | 3.2 | 6.4 | 0.00 | 0.00 | 0.00 | 75 | 1010.7 |
| 20260504225735 | 16 | 130 | 0.0 | 8.0 | 0.00 | 0.00 | 0.00 | 74 | 1010.7 |
| 20260504225235 | 16 | 184 | 3.2 | 8.0 | 0.00 | 0.00 | 0.00 | 75 | 1010.8 |
| 20260504224734 | 16 | 125 | 0.0 | 0.0 | 0.00 | 0.00 | 0.00 | 75 | 1010.9 |
| 20260504224232 | 16 | 125 | 0.0 | 4.8 | 0.00 | 0.00 | 0.00 | 74 | 1010.9 |
| 20260504223732 | 16 | 122 | 1.6 | 9.7 | 0.00 | 0.00 | 0.00 | 74 | 1011.0 |
| 20260504223231 | 16 | 168 | 0.0 | 14.5 | 0.00 | 0.00 | 0.00 | 75 | 1011.1 |
| 20260504222731 | 16 | 150 | 9.7 | 16.1 | 0.00 | 0.00 | 0.00 | 75 | 1011.1 |
| 20260504222231 | 16 | 189 | 4.8 | 8.0 | 0.00 | 0.00 | 0.00 | 75 | 1011.2 |
| 20260504221737 | 16 | 157 | 0.0 | 14.5 | 0.00 | 0.00 | 0.00 | 76 | 1011.3 |
| 20260504221232 | 16 | 163 | 12.9 | 12.9 | 0.00 | 0.00 | 0.00 | 77 | 1011.3 |
| 20260504220731 | 16 | 139 | 0.0 | 4.8 | 0.00 | 0.00 | 0.00 | 79 | 1011.4 |
| 20260504220231 | 16 | 149 | 4.8 | 4.8 | 0.00 | 0.00 | 0.00 | 79 | 1011.6 |
| 20260504215738 | 16 | 143 | 0.0 | 3.2 | 0.00 | 0.00 | 0.00 | 80 | 1011.6 |
| 20260504215232 | 16 | 144 | 0.0 | 4.8 | 0.00 | 0.00 | 0.00 | 80 | 1011.8 |
| 20260504214732 | 16 | 144 | 0.0 | 3.2 | 0.00 | 0.00 | 0.00 | 80 | 1011.7 |
| 20260504214232 | 16 | 146 | 3.2 | 3.2 | 0.00 | 0.00 | 0.00 | 80 | 1011.8 |
| 20260504213732 | 16 | 146 | 0.0 | 0.0 | 0.00 | 0.00 | 0.00 | 81 | 1011.9 |
| 20260504213232 | 16 | 146 | 0.0 | 3.2 | 0.00 | 0.00 | 0.00 | 81 | 1012.0 |
| 20260504212732 | 16 | 146 | 0.0 | 3.2 | 0.00 | 0.00 | 0.00 | 81 | 1012.1 |
| 20260504212234 | 16 | 146 | 0.0 | 3.2 | 0.00 | 0.00 | 0.00 | 81 | 1012.1 |
| 20260504211738 | 16 | 146 | 0.0 | 3.2 | 0.00 | 0.00 | 0.00 | 81 | 1012.2 |
| 20260504211232 | 16 | 146 | 0.0 | 3.2 | 0.00 | 0.00 | 0.00 | 82 | 1012.2 |
| 20260504210743 | 16 | 146 | 1.6 | 6.4 | 0.00 | 0.00 | 0.00 | 82 | 1012.2 |
| 20260504210232 | 16 | 150 | 0.0 | 6.4 | 0.00 | 0.00 | 0.00 | 82 | 1012.4 |
| 20260504205732 | 16 | 153 | 6.4 | 11.3 | 0.00 | 0.00 | 0.00 | 82 | 1012.4 |
| 20260504205233 | 16 | 149 | 1.6 | 6.4 | 0.00 | 0.00 | 0.00 | 82 | 1012.4 |
| 20260504204738 | 16 | 144 | 0.0 | 9.7 | 0.00 | 0.00 | 0.00 | 82 | 1012.3 |
| 20260504204233 | 16 | 140 | 4.8 | 14.5 | 0.00 | 0.00 | 0.00 | 82 | 1012.5 |
| 20260504203735 | 16 | 185 | 4.8 | 14.5 | 0.00 | 0.00 | 0.00 | 82 | 1012.4 |
| 20260504203235 | 16 | 150 | 3.2 | 9.7 | 0.00 | 0.00 | 0.00 | 82 | 1012.4 |
| 20260504202732 | 16 | 142 | 3.2 | 4.8 | 0.00 | 0.00 | 0.00 | 83 | 1012.4 |
| 20260504202232 | 16 | 154 | 0.0 | 8.0 | 0.00 | 0.00 | 0.00 | 83 | 1012.4 |
| 20260504201733 | 16 | 174 | 4.8 | 14.5 | 0.00 | 0.00 | 0.00 | 83 | 1012.5 |
| 20260504201233 | 16 | 137 | 8.0 | 11.3 | 0.00 | 0.00 | 0.00 | 83 | 1012.4 |
| 20260504200735 | 16 | 225 | 9.7 | 9.7 | 0.00 | 0.00 | 0.00 | 83 | 1012.5 |
| 20260504200235 | 16 | 146 | 4.8 | 9.7 | 0.00 | 0.00 | 0.00 | 83 | 1012.6 |
| 20260504195732 | 16 | 195 | 1.6 | 8.0 | 0.00 | 0.00 | 0.00 | 83 | 1012.5 |
| 20260504195235 | 16 | 177 | 4.8 | 11.3 | 0.00 | 0.00 | 0.00 | 83 | 1012.6 |
| 20260504194732 | 16 | 149 | 3.2 | 4.8 | 0.00 | 0.00 | 0.00 | 84 | 1012.5 |
| 20260504194238 | 16 | 174 | 0.0 | 1.6 | 0.00 | 0.00 | 0.00 | 85 | 1012.5 |
| 20260504193735 | 16 | 174 | 0.0 | 3.2 | 0.00 | 0.00 | 0.00 | 85 | 1012.5 |
| 20260504193232 | 16 | 174 | 1.6 | 11.3 | 0.00 | 0.00 | 0.00 | 85 | 1012.4 |
| 20260504192736 | 16 | 158 | 9.7 | 12.9 | 0.00 | 0.00 | 0.00 | 85 | 1012.4 |
| 20260504192232 | 16 | 164 | 6.4 | 14.5 | 0.00 | 0.00 | 0.00 | 85 | 1012.4 |
| 20260504191738 | 16 | 140 | 1.6 | 22.5 | 0.00 | 0.00 | 0.00 | 85 | 1012.3 |
| 20260504191232 | 16 | 122 | 9.7 | 17.7 | 0.00 | 0.00 | 0.00 | 85 | 1012.3 |
| 20260504190732 | 16 | 184 | 11.3 | 14.5 | 0.00 | 0.00 | 0.00 | 85 | 1012.3 |
| 20260504190238 | 16 | 163 | 11.3 | 16.1 | 0.00 | 0.00 | 0.00 | 85 | 1012.4 |
| 20260504185732 | 16 | 135 | 9.7 | 20.9 | 0.00 | 0.00 | 0.00 | 84 | 1012.4 |
| 20260504185232 | 16 | 168 | 3.2 | 14.5 | 0.00 | 0.00 | 0.00 | 84 | 1012.3 |
| 20260504184739 | 16 | 140 | 1.6 | 11.3 | 0.00 | 0.00 | 0.00 | 84 | 1012.4 |
| 20260504184236 | 16 | 132 | 6.4 | 17.7 | 0.00 | 0.00 | 0.00 | 84 | 1012.3 |
| 20260504183732 | 16 | 191 | 8.0 | 19.3 | 0.00 | 0.00 | 0.00 | 84 | 1012.3 |
| 20260504183235 | 16 | 156 | 4.8 | 12.9 | 0.00 | 0.00 | 0.00 | 84 | 1012.2 |
| 20260504182734 | 16 | 104 | 3.2 | 16.1 | 0.00 | 0.00 | 0.00 | 83 | 1012.2 |
| 20260504182235 | 16 | 144 | 3.2 | 12.9 | 0.00 | 0.00 | 0.00 | 83 | 1012.1 |
| 20260504181732 | 16 | 177 | 6.4 | 16.1 | 0.00 | 0.00 | 0.00 | 83 | 1012.0 |
| 20260504181232 | 16 | 142 | 3.2 | 22.5 | 0.00 | 0.00 | 0.00 | 84 | 1012.1 |
| 20260504180738 | 16 | 164 | 6.4 | 22.5 | 0.00 | 0.00 | 0.00 | 83 | 1012.1 |
| 20260504180232 | 16 | 175 | 3.2 | 20.9 | 0.00 | 0.00 | 0.00 | 83 | 1012.1 |
| 20260504175738 | 16 | 185 | 14.5 | 16.1 | 0.00 | 0.00 | 0.00 | 83 | 1012.0 |
| 20260504175238 | 16 | 195 | 14.5 | 17.7 | 0.00 | 0.00 | 0.00 | 83 | 1012.0 |
| 20260504174736 | 17 | 157 | 8.0 | 8.0 | 0.00 | 0.00 | 0.00 | 83 | 1012.0 |
| 20260504174239 | 17 | 157 | 8.0 | 8.0 | 0.00 | 0.00 | 0.00 | 83 | 1011.9 |
| 20260504173738 | 17 | 157 | 8.0 | 8.0 | 0.00 | 0.00 | 0.00 | 83 | 1011.9 |
| 20260504173232 | 17 | 157 | 8.0 | 8.0 | 0.00 | 0.00 | 0.00 | 83 | 1012.0 |
| 20260504172732 | 17 | 157 | 8.0 | 8.0 | 0.00 | 0.00 | 0.00 | 83 | 1012.0 |
| 20260504172232 | 17 | 157 | 8.0 | 8.0 | 0.00 | 0.00 | 0.00 | 83 | 1012.0 |
| 20260504171735 | 17 | 157 | 8.0 | 8.0 | 0.00 | 0.00 | 0.00 | 83 | 1012.0 |
| 20260504171232 | 17 | 157 | 8.0 | 8.0 | 0.00 | 0.00 | 0.00 | 83 | 1012.1 |
| 20260504170732 | 17 | 157 | 8.0 | 8.0 | 0.00 | 0.00 | 0.00 | 83 | 1012.1 |
| 20260504170232 | 17 | 157 | 8.0 | 8.0 | 0.00 | 0.00 | 0.00 | 83 | 1012.1 |
| 20260504160232 | 17 | 208 | 12.9 | 17.7 | 0.00 | 0.00 | 0.00 | 82 | 1012.5 |
| 20260504150735 | 18 | 187 | 9.7 | 17.7 | 0.00 | 0.00 | 0.00 | 76 | 1012.4 |
| 20260504150233 | 18 | 196 | 12.9 | 16.1 | 0.00 | 0.00 | 0.00 | 75 | 1012.5 |
| 20260504141235 | 17 | 144 | 16.1 | 19.3 | 0.00 | 0.00 | 0.00 | 78 | 1013.0 |
| 20260504140735 | 17 | 139 | 11.3 | 24.1 | 0.00 | 0.00 | 0.00 | 79 | 1013.1 |
| 20260504140232 | 17 | 199 | 17.7 | 20.9 | 0.00 | 0.00 | 0.00 | 80 | 1013.1 |
| 20260504130733 | 17 | 178 | 9.7 | 20.9 | 0.00 | 0.00 | 0.00 | 81 | 1013.5 |
| 20260504130233 | 17 | 208 | 8.0 | 24.1 | 0.00 | 0.00 | 0.00 | 81 | 1013.6 |
| 20260504120242 | 17 | 227 | 4.8 | 24.1 | 0.00 | 0.00 | 0.00 | 80 | 1013.7 |
| 20260504110236 | 17 | 146 | 11.3 | 19.3 | 0.00 | 0.00 | 0.00 | 80 | 1014.1 |
| 20260504100233 | 16 | 135 | 6.4 | 14.5 | 0.00 | 0.00 | 0.00 | 81 | 1014.4 |
| 20260504081733 | 16 | 130 | 8.0 | 12.9 | 0.00 | 0.00 | 0.00 | 76 | 1014.0 |
| 20260504081236 | 16 | 181 | 9.7 | 19.3 | 0.00 | 0.00 | 0.00 | 75 | 1014.0 |
| 20260504080733 | 16 | 175 | 8.0 | 12.9 | 0.00 | 0.00 | 0.00 | 75 | 1014.0 |
| 20260504080242 | 16 | 181 | 12.9 | 19.3 | 0.00 | 0.00 | 0.00 | 74 | 1014.0 |
| 20260504070233 | 16 | 196 | 3.2 | 8.0 | 0.00 | 0.00 | 0.00 | 69 | 1013.5 |
| 20260504060237 | 15 | 71 | 0.0 | 4.8 | 0.00 | 0.00 | 0.00 | 65 | 1013.5 |
| 20260504050737 | 15 | 39 | 0.0 | 0.0 | 0.00 | 0.00 | 0.00 | 66 | 1013.3 |
| 20260504050237 | 15 | 39 | 0.0 | 0.0 | 0.00 | 0.00 | 0.00 | 65 | 1013.4 |
| 20260504045734 | 15 | 39 | 0.0 | 1.6 | 0.00 | 0.00 | 0.00 | 66 | 1013.3 |